Flag for U.S.A. Weather past 2 weeks in Scranton, Pennsylvania, U.S.A.

Now
80 °F

Overcast.


Feels Like: 80 °F
Forecast: 63 / 82 °F
Wind: 6 mph from Northwest

Location: Barre - Scranton - Wilkes-Barre / Scranton International Airport

Current Time: Aug 1, 2015 at 4:36:28 PM

Latest Report: Aug 1, 2015 at 3:54 PM


Visibility: 10 mi

Pressure: 29.82 "Hg

Humidity: 45%

Dew point: 57 °F

Location of ScrantonLocation

Historic Weather in Scranton — Graph

°F

Scranton temperature yesterday

Maximum temperature yesterday: 85 °F (at 2:54 PM)
Minimum temperature yesterday: 62 °F (at 5:54 AM)
Average temperature yesterday: 74 °F

Past Weeks' High & Low Weather Summary

 TemperatureHumidityPressure
High93 °F (Jul 19, 2:54 PM)96% (Jul 27, 12:54 AM)30.05 "Hg (Jul 27, 12:54 AM)
Low55 °F (Jul 23, 5:54 AM)29% (Jul 25, 1:54 PM)29.59 "Hg (Jul 21, 3:54 PM)
Average75 °F66%29.89 "Hg
* Reported Jul 17 2:54 PM — Aug 1 2:54 PM, Scranton, Weather by CustomWeather, © 2015

Note: Actual official high and low records may vary slightly from our data, if they occured in-between our weather recording intervals... More about our weather records

Advertising

Scranton weather history for previous 24 hours

 ConditionsComfort  
Time TempWeatherWind HumidityBarometerVisibility
2:54 PM
Sat, Aug 1
81 °FPartly sunny.10 mph42%29.82 "Hg10 mi
1:54 PM81 °FBroken clouds.5 mph44%29.82 "Hg10 mi
12:54 PM80 °FScattered clouds.6 mph49%29.83 "Hg10 mi
11:54 AM79 °FScattered clouds.5 mph52%29.83 "Hg10 mi
10:54 AM78 °FSunny.5 mph58%29.82 "Hg10 mi
9:54 AM77 °FScattered clouds.3 mph60%29.83 "Hg10 mi
8:54 AM75 °FSunny.10 mph62%29.82 "Hg10 mi
7:54 AM72 °FSunny.7 mph68%29.81 "Hg10 mi
6:54 AM71 °FPassing clouds.6 mph68%29.79 "Hg10 mi
5:54 AM71 °FPassing clouds.7 mph68%29.80 "Hg10 mi
4:54 AM69 °FPassing clouds.5 mph76%29.79 "Hg10 mi
3:54 AM66 °FClear.3 mph78%29.79 "Hg10 mi
2:54 AM67 °FClear.No wind76%29.80 "Hg10 mi
1:54 AM69 °FClear.3 mph73%29.81 "Hg10 mi
12:54 AM72 °FPassing clouds.3 mph64%29.82 "Hg10 mi
11:54 PM
Fri, Jul 31
70 °FPassing clouds.5 mph71%29.83 "Hg10 mi
10:54 PM71 °FClear.3 mph66%29.83 "Hg10 mi
9:54 PM75 °FClear.3 mph55%29.82 "Hg10 mi
8:54 PM77 °FScattered clouds.No wind52%29.81 "Hg10 mi
7:54 PM81 °FSunny.6 mph44%29.80 "Hg10 mi
6:54 PM84 °FPassing clouds.10 mph38%29.80 "Hg10 mi
5:54 PM83 °FSunny.7 mph41%29.82 "Hg10 mi
4:54 PM85 °FPassing clouds.9 mph39%29.83 "Hg10 mi
Weather by CustomWeather, © 2015

See weather overviewHow to use our weather pages